Home > Time Zones > World Clock > Weather > France > Caen > Past weeks

Flag for France Weather past 2 weeks in Caen, France

Now
63 °F

Passing clouds.


Feels Like: 63 °F
Forecast: 63 / 80 °F
Wind: 3 mph from Northeast

Location: Caen Airport

Current Time: Jul 23, 2014 at 3:16:11 AM

Latest Report: Jul 23, 2014 at 2:30 AM


Visibility: 5 mi

Pressure: 30.12 "Hg

Humidity: 94%

Dew point: 61 °F

Location of CaenLocation

Historic Weather in Caen — Graph

°F

Caen temperature yesterday

Maximum temperature yesterday: 75 °F (at 11:00 AM)
Minimum temperature yesterday: 57 °F (at 5:00 AM)
Average temperature yesterday: 67 °F

Past Weeks' High & Low Weather Summary

 TemperatureHumidityPressure
High84 °F (Jul 17, 5:00 PM)100% (Jul 8, 4:30 AM)30.18 "Hg (Jul 8, 4:30 AM)
Low54 °F (Jul 8, 1:30 AM)49% (Jul 14, 1:00 PM)29.71 "Hg (Jul 19, 7:00 AM)
Average65 °F78%30.02 "Hg
* Reported Jul 7 6:00 PM — Jul 22 6:30 PM, Caen, Weather by CustomWeather, © 2014

Note: Actual official high and low records may vary slightly from our data, if they occured in-between our weather recording intervals... More about our weather records

Advertising

Caen weather history for previous 24 hours

 ConditionsComfort  
Time TempWeatherWind HumidityBarometerVisibility
6:30 PM
Jul 22
72 °FClear.12 mph69%30.15 "HgN/A
6:00 PM72 °FClear.10 mph65%30.15 "HgN/A
5:30 PM72 °FClear.12 mph69%30.15 "HgN/A
5:00 PM72 °FClear.12 mph65%30.15 "HgN/A
4:30 PM72 °FClear.12 mph65%30.18 "HgN/A
4:00 PM73 °FClear.13 mph61%30.18 "HgN/A
3:30 PM73 °FClear.10 mph57%30.15 "HgN/A
3:00 PM75 °FClear.12 mph57%30.18 "HgN/A
2:30 PM75 °FPassing clouds.10 mph61%30.18 "HgN/A
2:00 PM75 °FClear.12 mph57%30.18 "HgN/A
1:30 PM75 °FClear.12 mph57%30.18 "HgN/A
1:00 PM75 °FPassing clouds.12 mph57%30.18 "HgN/A
12:30 PM75 °FClear.9 mph57%30.18 "HgN/A
12:00 PM75 °FClear.9 mph57%30.18 "HgN/A
11:30 AM75 °FClear.8 mph57%30.18 "HgN/A
11:00 AM75 °FPassing clouds.7 mph61%30.18 "HgN/A
10:30 AM73 °FPassing clouds.6 mph65%30.18 "HgN/A
10:00 AM70 °FPassing clouds.6 mph78%30.18 "HgN/A
9:30 AM68 °FPassing clouds.6 mph83%30.18 "HgN/A
9:00 AM66 °FPartly sunny.7 mph88%30.18 "HgN/A
8:30 AM63 °FPassing clouds.9 mph94%30.15 "HgN/A
8:00 AM61 °FBroken clouds.8 mph94%30.15 "HgN/A
7:30 AM61 °FClear.7 mph94%30.15 "HgN/A
7:00 AM59 °FClear.7 mph94%30.15 "HgN/A
6:30 AM59 °FClear.9 mph94%30.15 "HgN/A
6:00 AM59 °FClear.8 mph94%30.15 "HgN/A
5:30 AM57 °FClear.7 mph100%30.15 "HgN/A
5:00 AM57 °FClear.6 mph94%30.15 "HgN/A
4:30 AM59 °FClear.8 mph88%30.15 "HgN/A
4:00 AM59 °FClear.10 mph94%30.15 "HgN/A
3:30 AM59 °FClear.10 mph94%30.15 "HgN/A
3:00 AM61 °FClear.9 mph88%30.15 "HgN/A
Weather by CustomWeather, © 2014

See weather overviewHow to use our weather pages